TimePDT,TemperatureF,Dew PointF,Humidity,Sea Level PressureIn,VisibilityMPH,Wind Direction,Wind SpeedMPH,Gust SpeedMPH,PrecipitationIn,Events,Conditions,WindDirDegrees,DateUTC
12:53 AM,71.1,39.0,31,29.90,10.0,NW,6.9,-,N/A,,Clear,320,2012-10-06 07:53:00
1:53 AM,71.1,39.0,31,29.90,10.0,Calm,Calm,-,N/A,,Clear,0,2012-10-06 08:53:00
2:53 AM,69.1,37.9,32,29.89,10.0,Calm,Calm,-,N/A,,Clear,0,2012-10-06 09:53:00
3:53 AM,69.1,37.0,31,29.88,10.0,WNW,3.5,-,N/A,,Clear,290,2012-10-06 10:53:00
4:53 AM,70.0,36.0,29,29.89,10.0,Calm,Calm,-,N/A,,Clear,0,2012-10-06 11:53:00
5:53 AM,71.1,30.9,23,29.90,10.0,North,9.2,-,N/A,,Clear,10,2012-10-06 12:53:00
6:53 AM,69.1,30.9,24,29.92,10.0,NW,5.8,-,N/A,,Clear,320,2012-10-06 13:53:00
7:53 AM,71.1,32.0,24,29.94,10.0,NW,4.6,-,N/A,,Clear,310,2012-10-06 14:53:00
8:53 AM,75.9,32.0,20,29.94,10.0,Calm,Calm,-,N/A,,Clear,0,2012-10-06 15:53:00
9:53 AM,78.1,28.9,17,29.95,10.0,SE,3.5,-,N/A,,Clear,130,2012-10-06 16:53:00
10:53 AM,82.9,25.0,12,29.93,10.0,Calm,Calm,-,N/A,,Clear,0,2012-10-06 17:53:00
11:53 AM,84.0,25.0,12,29.92,10.0,ESE,6.9,-,N/A,,Clear,110,2012-10-06 18:53:00
12:53 PM,84.9,24.1,11,29.90,10.0,ESE,9.2,-,N/A,,Clear,120,2012-10-06 19:53:00
1:53 PM,84.9,24.1,11,29.87,10.0,ESE,6.9,-,N/A,,Clear,120,2012-10-06 20:53:00
2:53 PM,86.0,25.0,11,29.86,10.0,ESE,9.2,-,N/A,,Clear,120,2012-10-06 21:53:00
3:53 PM,87.1,25.0,10,29.84,10.0,East,6.9,-,N/A,,Clear,90,2012-10-06 22:53:00
4:53 PM,87.1,25.0,10,29.82,10.0,East,3.5,-,N/A,,Clear,80,2012-10-06 23:53:00
5:53 PM,84.9,26.1,12,29.81,10.0,Calm,Calm,-,N/A,,Clear,0,2012-10-07 00:53:00
6:53 PM,82.9,27.0,13,29.82,10.0,Calm,Calm,-,N/A,,Clear,0,2012-10-07 01:53:00
7:53 PM,82.0,28.9,14,29.83,10.0,Calm,Calm,-,N/A,,Clear,0,2012-10-07 02:53:00
8:53 PM,77.0,34.0,21,29.84,10.0,NW,3.5,-,N/A,,Clear,310,2012-10-07 03:53:00
9:53 PM,75.9,34.0,22,29.84,10.0,WSW,3.5,-,N/A,,Clear,240,2012-10-07 04:53:00
10:53 PM,72.0,35.1,26,29.84,10.0,NNE,3.5,-,N/A,,Clear,30,2012-10-07 05:53:00
11:53 PM,72.0,34.0,25,29.85,10.0,NW,3.5,-,N/A,,Clear,320,2012-10-07 06:53:00